Change the Weather History Date:

Monday, March 18, 2013

  Actual Average (KRUG) Record (KRUG)
Temperature  
Mean Temperature 5 °F -  
Max Temperature 10 °F 36 °F 69 °F (2012)
Min Temperature 0 °F 19 °F -14 °F (1989)
Degree Days  
Heating Degree Days 60    
Moisture  
Dew Point 1 °F    
Average Humidity 82    
Maximum Humidity 100    
Minimum Humidity 66    
Precipitation  
Precipitation 4.75 in - - ()
Sea Level Pressure  
Sea Level Pressure 29.75 in    
Wind  
Wind Speed 21 mph (NNW)    
Max Wind Speed 34 mph    
Max Gust Speed 40 mph    
Visibility 4 miles    
Events Rain , Snow    
Averages and records for this station are not official NWS values.
T = Trace of Precipitation, MM = Missing Value Source: NWS Daily Summary

Daily Weather History Graph

Daily Weather History Graph

Search for Another Location

Airport or City:

Trip Planner

Search our weather history database for the weather conditions in past years. The results will help you decide how hot, cold, wet, or windy it might be!

Date:

Astronomy

Mar. 18, 2013 Rise Set
Actual Time 7:44 AM CDT 7:48 PM CDT
Civil Twilight 7:13 AM CDT 8:20 PM CDT
Nautical Twilight 6:36 AM CDT 8:57 PM CDT
Astronomical Twilight 5:58 AM CDT 9:35 PM CDT
Moon 11:16 AM CDT (3/18) 2:17 AM CDT (3/18)
Length of Visible Light 13h 06m
Length of Day
12h 03m
Waxing Crescent, 41% of the Moon is Illuminated
Mar 18
Waxing Crescent
Mar 19
First Quarter
Mar 27
Full
Apr 2
Last Quarter
Apr 10
New

Hourly Weather History & Observations

Time (CDT) Temp. Windchill Dew Point Humidity Pressure Visibility Wind Dir Wind Speed Gust Speed Precip Events Conditions
12:15 AM 10.4 °F -3.3 °F 8.6 °F 92% 29.57 in 1.0 mi NNE 10.4 mph - 0.45 in Snow Light Snow
12:35 AM 10.4 °F -4.1 °F 8.6 °F 92% 29.56 in 3.0 mi NNE 11.5 mph - 0.59 in Snow Light Snow
12:55 AM 10.4 °F -4.8 °F 8.6 °F 92% 29.56 in 2.0 mi North 12.7 mph - 0.88 in Snow Light Snow
1:15 AM 10.4 °F -5.4 °F 8.6 °F 92% 29.56 in 2.0 mi North 13.8 mph - 0.15 in Snow Light Snow
1:35 AM 8.6 °F -7.7 °F 8.6 °F 100% 29.56 in 1.0 mi North 13.8 mph - 0.74 in Snow Light Snow
1:55 AM 8.6 °F -8.9 °F 8.6 °F 100% 29.57 in 3.0 mi North 16.1 mph - 1.32 in Snow Light Snow
2:15 AM 8.6 °F -8.9 °F 8.6 °F 100% 29.56 in 2.5 mi North 16.1 mph - 0.20 in Snow Light Snow
2:35 AM 8.6 °F -8.9 °F 6.8 °F 92% 29.57 in 1.0 mi NNW 16.1 mph - 1.16 in Snow Light Snow
2:55 AM 6.8 °F -11.3 °F 5.0 °F 92% 29.57 in 1.2 mi NNW 16.1 mph - 1.44 in Snow Light Snow
3:15 AM 6.8 °F -10.7 °F 5.0 °F 92% 29.57 in 1.8 mi NNW 15.0 mph - 0.05 in Snow Light Snow
3:35 AM 6.8 °F -11.8 °F 5.0 °F 92% 29.58 in 4.0 mi NNW 17.3 mph - 0.11 in Snow Light Snow
3:55 AM 6.8 °F -13.4 °F 5.0 °F 92% 29.58 in 4.0 mi NNW 20.7 mph - 0.18 in Snow Light Snow
4:15 AM 6.8 °F -14.7 °F 3.2 °F 85% 29.59 in 1.8 mi NNW 24.2 mph 27.6 mph 0.07 in Snow Light Snow
4:35 AM 5.0 °F -16.7 °F 1.4 °F 85% 29.58 in 1.5 mi NNW 23.0 mph - 0.16 in Snow Light Snow
4:55 AM 5.0 °F -18.3 °F 1.4 °F 85% 29.59 in 1.8 mi NNW 27.6 mph 32.2 mph 0.21 in Snow Light Snow
5:15 AM 5.0 °F -17.5 °F 1.4 °F 85% 29.59 in 1.0 mi NNW 25.3 mph 35.7 mph 0.09 in Snow Light Snow
5:35 AM 5.0 °F -18.7 °F 1.4 °F 85% 29.60 in 1.0 mi NNW 28.8 mph 32.2 mph 0.17 in Snow Light Snow
6:15 AM 5.0 °F -19.0 °F 1.4 °F 85% 29.62 in 1.2 mi NNW 29.9 mph 36.8 mph 0.03 in Snow Light Snow
6:35 AM 3.2 °F -20.3 °F -0.4 °F 85% 29.62 in 1.0 mi NW 26.5 mph 35.7 mph 0.09 in Snow Light Snow
6:55 AM 1.4 °F -23.9 °F -0.4 °F 92% 29.63 in 1.2 mi NNW 29.9 mph 34.5 mph 0.12 in Snow Light Snow
7:15 AM 1.4 °F -23.5 °F -0.4 °F 92% 29.65 in 1.5 mi NNW 28.8 mph 35.7 mph 0.01 in Snow Light Snow
7:35 AM 1.4 °F -22.7 °F -0.4 °F 92% 29.65 in 1.0 mi NW 26.5 mph 35.7 mph 0.04 in Snow Light Snow
7:55 AM 1.4 °F -22.7 °F -0.4 °F 92% 29.66 in 0.5 mi NNW 26.5 mph 34.5 mph 0.08 in Snow Snow
8:15 AM 1.4 °F -23.5 °F -0.4 °F 92% 29.66 in 0.5 mi NNW 28.8 mph 33.4 mph 0.03 in Snow Snow
8:35 AM 1.4 °F -24.6 °F -0.4 °F 92% 29.68 in 0.5 mi NW 32.2 mph 35.7 mph 0.06 in Snow Snow
8:55 AM 3.2 °F -22.5 °F -0.4 °F 85% 29.68 in 0.5 mi NNW 33.4 mph - 0.11 in Snow Snow
9:15 AM 3.2 °F -21.8 °F -0.4 °F 85% 29.69 in 0.5 mi NNW 31.1 mph 35.7 mph 0.02 in Snow Snow
9:35 AM 3.2 °F -21.8 °F -0.4 °F 85% 29.70 in 0.5 mi NNW 31.1 mph 39.1 mph 0.06 in Snow Snow
9:55 AM 5.0 °F -19.7 °F -0.4 °F 78% 29.70 in 0.5 mi NNW 32.2 mph 40.3 mph 0.10 in Snow Snow
10:35 AM 5.0 °F -19.4 °F 1.4 °F 85% 29.72 in 0.5 mi NNW 31.1 mph 38.0 mph 0.04 in Snow Snow
10:55 AM 5.0 °F -19.7 °F 1.4 °F 85% 29.73 in 0.5 mi NNW 32.2 mph 39.1 mph 0.06 in Snow Snow
11:15 AM 5.0 °F -19.0 °F 1.4 °F 85% 29.75 in 0.5 mi NNW 29.9 mph 39.1 mph 0.01 in Snow Snow
11:35 AM 5.0 °F -18.7 °F 1.4 °F 85% 29.75 in 0.8 mi NNW 28.8 mph 35.7 mph 0.02 in Snow Light Snow
11:55 AM 5.0 °F -20.4 °F 1.4 °F 85% 29.76 in 0.8 mi NNW 34.5 mph 38.0 mph 0.03 in Snow Light Snow
12:15 PM 5.0 °F -18.7 °F 1.4 °F 85% 29.77 in 1.0 mi NNW 28.8 mph 34.5 mph N/A Rain Light Freezing Rain
12:35 PM 5.0 °F -19.7 °F 1.4 °F 85% 29.78 in 0.5 mi NNW 32.2 mph 38.0 mph 0.01 in Snow Snow
12:55 PM 5.0 °F -18.3 °F 1.4 °F 85% 29.78 in 1.0 mi NNW 27.6 mph 35.7 mph 0.01 in Rain Light Freezing Rain
1:15 PM 5.0 °F -19.0 °F 1.4 °F 85% 29.79 in 0.5 mi NNW 29.9 mph 35.7 mph N/A Snow Snow
1:35 PM 6.8 °F -17.3 °F 1.4 °F 79% 29.78 in 0.8 mi NNW 32.2 mph 38.0 mph 0.01 in Snow Light Snow
1:55 PM 6.8 °F -17.6 °F 1.4 °F 79% 29.79 in 0.5 mi NNW 33.4 mph 39.1 mph 0.02 in Snow Snow
2:15 PM 6.8 °F -16.2 °F 1.4 °F 79% 29.79 in 0.8 mi NNW 28.8 mph 39.1 mph N/A Snow Light Snow
2:35 PM 6.8 °F -16.6 °F 1.4 °F 79% 29.80 in 0.8 mi NW 29.9 mph - 0.01 in Snow Light Snow
2:55 PM 6.8 °F -16.2 °F 1.4 °F 79% 29.81 in 1.0 mi NNW 28.8 mph 36.8 mph 0.02 in Rain Light Freezing Rain
3:15 PM 6.8 °F -16.6 °F 1.4 °F 79% 29.81 in 1.0 mi NNW 29.9 mph 38.0 mph N/A Rain Light Freezing Rain
3:35 PM 6.8 °F -15.5 °F 1.4 °F 79% 29.82 in 1.0 mi NNW 26.5 mph 35.7 mph N/A Rain Light Freezing Rain
3:55 PM 8.6 °F -13.1 °F 3.2 °F 79% 29.82 in 1.5 mi NW 26.5 mph 34.5 mph N/A Rain Light Freezing Rain
4:15 PM 8.6 °F -13.1 °F 3.2 °F 79% 29.83 in 3.0 mi NW 26.5 mph 32.2 mph N/A Rain Light Freezing Rain
4:35 PM 8.6 °F -12.3 °F 1.4 °F 73% 29.84 in 2.5 mi NW 24.2 mph - N/A Rain Light Freezing Rain
4:55 PM 8.6 °F -13.1 °F 1.4 °F 73% 29.84 in 3.0 mi NW 26.5 mph - N/A Snow Light Snow
5:15 PM 8.6 °F -13.4 °F 1.4 °F 73% 29.84 in 5.0 mi NW 27.6 mph 31.1 mph N/A   Haze
5:35 PM 8.6 °F -11.9 °F 1.4 °F 73% 29.85 in 5.0 mi NW 23.0 mph 29.9 mph N/A   Haze
5:55 PM 8.6 °F -12.3 °F 1.4 °F 73% 29.86 in 7.0 mi NW 24.2 mph 29.9 mph N/A   Clear
6:15 PM 6.8 °F -12.9 °F -0.4 °F 72% 29.86 in 10.0 mi NW 19.6 mph - N/A   Clear
6:35 PM 6.8 °F -12.9 °F -0.4 °F 72% 29.86 in 10.0 mi NW 19.6 mph 25.3 mph N/A   Clear
6:55 PM 6.8 °F -11.8 °F -0.4 °F 72% 29.87 in 10.0 mi NW 17.3 mph - N/A   Clear
7:15 PM 6.8 °F -12.9 °F -2.2 °F 67% 29.88 in 10.0 mi NW 19.6 mph - N/A   Clear
7:35 PM 5.0 °F -14.2 °F -2.2 °F 72% 29.89 in 10.0 mi NW 17.3 mph - N/A   Clear
7:55 PM 5.0 °F -14.2 °F -2.2 °F 72% 29.90 in 10.0 mi NW 17.3 mph - N/A   Clear
8:15 PM 5.0 °F -12.3 °F -4.0 °F 66% 29.91 in 10.0 mi NW 13.8 mph - N/A   Clear
8:35 PM 5.0 °F -13.6 °F -4.0 °F 66% 29.91 in 10.0 mi NW 16.1 mph - N/A   Clear
8:55 PM 1.4 °F -16.9 °F -5.8 °F 72% 29.91 in 10.0 mi NW 13.8 mph - N/A   Clear
9:15 PM 1.4 °F -17.6 °F -5.8 °F 72% 29.91 in 10.0 mi NW 15.0 mph - N/A   Clear
9:35 PM 1.4 °F -18.2 °F -5.8 °F 72% 29.92 in 10.0 mi NW 16.1 mph - N/A   Clear
9:55 PM 1.4 °F -17.6 °F -7.6 °F 66% 29.92 in 10.0 mi NNW 15.0 mph - N/A   Clear
10:15 PM 1.4 °F -16.9 °F -7.6 °F 66% 29.93 in 10.0 mi NW 13.8 mph - N/A   Clear
10:55 PM -0.4 °F -18.4 °F -7.6 °F 72% 29.94 in 10.0 mi NW 12.7 mph - N/A   Clear
11:15 PM -0.4 °F -18.4 °F -7.6 °F 72% 29.95 in 10.0 mi NW 12.7 mph - N/A   Clear
11:35 PM -0.4 °F -19.2 °F -7.6 °F 72% 29.95 in 10.0 mi NW 13.8 mph - N/A   Clear
11:55 PM -0.4 °F -17.6 °F -7.6 °F 72% 29.96 in 10.0 mi NW 11.5 mph - N/A   Clear